When you browse on this site, cookies collect data to enhance your experience and personalize the content and advertising you see.
Visit our Privacy Policy to learn more. By continuing to use the site, you agree to this use of cookies and data.
  • In Hungary
  • List of Countries
  • For 7 days
  • Water Temperature
  • Satellite Maps
  • Weather Map
  • News
  • Weather Widgets
  • user-avatar
    Login

    Hourly Weather Santa Catarina Ayotzingo

    Today, 19 April, Friday

    Time Temperature Precipitation Wind Pressure Humidity
    00:00 +18°C° 0 mm 2 mps 571 mmHg 51%
    01:00 +17°C° 0 mm 2 mps 571 mmHg 52%
    02:00 +16°C° 0 mm 3 mps 571 mmHg 54%
    03:00 +14°C° 0 mm 3 mps 571 mmHg 54%
    04:00 +13°C° 0 mm 3 mps 570 mmHg 55%
    05:00 +12°C° 0 mm 3 mps 570 mmHg 54%
    06:00 +15°C° 0 mm 2 mps 571 mmHg 50%
    07:00 +16°C° 0 mm 2 mps 572 mmHg 45%
    08:00 +18°C° 0 mm 2 mps 573 mmHg 41%
    09:00 +21°C° 0 mm 1 mps 574 mmHg 36%
    10:00 +23°C° 0 mm 1 mps 574 mmHg 32%
    11:00 +25°C° 0 mm 1 mps 575 mmHg 28%
    12:00 +25°C° 0 mm 1 mps 575 mmHg 28%
    13:00 +25°C° 0 mm 1 mps 574 mmHg 29%
    14:00 +25°C° 0 mm 1 mps 574 mmHg 29%
    15:00 +24°C° 0.1 mm 1 mps 573 mmHg 32%
    16:00 +23°C° 0.1 mm 1 mps 573 mmHg 34%
    17:00 +22°C° 0.1 mm 1 mps 572 mmHg 37%
    18:00 +21°C° 0.1 mm 1 mps 572 mmHg 40%
    19:00 +19°C° 0.1 mm 2 mps 572 mmHg 43%
    20:00 +18°C° 0.1 mm 2 mps 573 mmHg 46%
    21:00 +17°C° 0 mm 2 mps 573 mmHg 48%
    22:00 +16°C° 0 mm 2 mps 572 mmHg 50%
    23:00 +15°C° 0 mm 2 mps 572 mmHg 52%

    Tomorrow, 20 April, Saturday

    Time Temperature Precipitation Wind Pressure Humidity
    00:00 +15°C° 0 mm 2 mps 572 mmHg 52%
    01:00 +14°C° 0 mm 2 mps 572 mmHg 52%
    02:00 +14°C° 0 mm 1 mps 571 mmHg 51%
    03:00 +14°C° 0 mm 1 mps 571 mmHg 51%
    04:00 +13°C° 0 mm 1 mps 571 mmHg 50%
    05:00 +13°C° 0 mm 1 mps 571 mmHg 49%
    06:00 +15°C° 0 mm 1 mps 572 mmHg 43%
    07:00 +18°C° 0 mm 1 mps 574 mmHg 38%
    08:00 +20°C° 0 mm 1 mps 575 mmHg 32%
    09:00 +22°C° 0 mm 1 mps 575 mmHg 29%
    10:00 +24°C° 0 mm 1 mps 576 mmHg 26%
    11:00 +26°C° 0 mm 1 mps 576 mmHg 23%
    12:00 +26°C° 0 mm 1 mps 576 mmHg 21%
    13:00 +27°C° 0 mm 1 mps 575 mmHg 20%
    14:00 +27°C° 0 mm 2 mps 574 mmHg 18%
    15:00 +26°C° 0 mm 2 mps 574 mmHg 19%
    16:00 +25°C° 0 mm 2 mps 573 mmHg 20%
    17:00 +24°C° 0 mm 2 mps 573 mmHg 22%
    18:00 +23°C° 0 mm 1 mps 573 mmHg 25%
    19:00 +21°C° 0 mm 1 mps 573 mmHg 28%
    20:00 +20°C° 0 mm 1 mps 573 mmHg 31%
    21:00 +19°C° 0 mm 1 mps 573 mmHg 32%
    22:00 +17°C° 0 mm 0 mps 573 mmHg 33%
    23:00 +16°C° 0 mm 0 mps 573 mmHg 34%

    Day after tomorrow, 21 April, Sunday

    Time Temperature Precipitation Wind Pressure Humidity
    00:00 +18°C° 0 mm 1 mps 572 mmHg 37%
    01:00 +16°C° 0 mm 1 mps 572 mmHg 40%
    02:00 +16°C° 0 mm 1 mps 571 mmHg 43%
    03:00 +15°C° 0 mm 1 mps 571 mmHg 45%
    04:00 +15°C° 0 mm 1 mps 571 mmHg 47%
    05:00 +15°C° 0 mm 1 mps 571 mmHg 49%
    06:00 +18°C° 0 mm 1 mps 572 mmHg 44%
    07:00 +20°C° 0 mm 1 mps 573 mmHg 39%
    08:00 +22°C° 0 mm 1 mps 574 mmHg 34%
    09:00 +23°C° 0 mm 1 mps 575 mmHg 30%
    10:00 +25°C° 0 mm 1 mps 575 mmHg 27%
    11:00 +27°C° 0 mm 2 mps 576 mmHg 23%
    12:00 +28°C° 0 mm 1 mps 575 mmHg 22%
    13:00 +28°C° 0 mm 1 mps 575 mmHg 21%
    14:00 +29°C° 0 mm 1 mps 574 mmHg 20%
    15:00 +28°C° 0 mm 2 mps 574 mmHg 22%
    16:00 +27°C° 0 mm 2 mps 573 mmHg 24%
    17:00 +26°C° 0 mm 2 mps 573 mmHg 26%
    18:00 +24°C° 0.1 mm 2 mps 573 mmHg 31%
    19:00 +23°C° 0.1 mm 1 mps 573 mmHg 35%
    20:00 +22°C° 0.1 mm 1 mps 573 mmHg 40%
    21:00 +21°C° 0.1 mm 1 mps 573 mmHg 41%
    22:00 +21°C° 0.1 mm 1 mps 573 mmHg 43%
    23:00 +18°C° 0.1 mm 0 mps 573 mmHg 44%

    22 April, Monday

    Time Temperature Precipitation Wind Pressure Humidity
    00:00 +18°C° 0.1 mm 0 mps 572 mmHg 46%
    01:00 +19°C° 0.1 mm 1 mps 572 mmHg 49%
    02:00 +18°C° 0.1 mm 1 mps 571 mmHg 51%
    03:00 +18°C° 0 mm 1 mps 571 mmHg 52%
    04:00 +16°C° 0 mm 0 mps 571 mmHg 54%
    05:00 +15°C° 0 mm 0 mps 571 mmHg 55%
    06:00 +19°C° 0 mm 1 mps 572 mmHg 49%
    07:00 +21°C° 0 mm 1 mps 573 mmHg 42%
    08:00 +23°C° 0 mm 1 mps 574 mmHg 35%
    09:00 +25°C° 0 mm 1 mps 575 mmHg 30%
    10:00 +27°C° 0 mm 1 mps 575 mmHg 25%
    11:00 +29°C° 0 mm 1 mps 576 mmHg 20%
    12:00 +29°C° 0 mm 1 mps 575 mmHg 20%
    13:00 +29°C° 0 mm 1 mps 574 mmHg 20%
    14:00 +30°C° 0 mm 1 mps 574 mmHg 20%
    15:00 +28°C° 0.1 mm 2 mps 573 mmHg 22%
    16:00 +27°C° 0.1 mm 2 mps 572 mmHg 25%
    17:00 +26°C° 0.1 mm 2 mps 572 mmHg 28%
    18:00 +25°C° 0.3 mm 1 mps 572 mmHg 31%
    19:00 +24°C° 0.3 mm 1 mps 572 mmHg 34%
    20:00 +23°C° 0.3 mm 1 mps 572 mmHg 37%
    21:00 +22°C° 0 mm 1 mps 572 mmHg 39%
    22:00 +21°C° 0 mm 1 mps 572 mmHg 40%
    23:00 +19°C° 0 mm 0 mps 572 mmHg 42%

    23 April, Tuesday

    Time Temperature Precipitation Wind Pressure Humidity
    00:00 +20°C° 0 mm 1 mps 571 mmHg 43%
    01:00 +20°C° 0 mm 1 mps 571 mmHg 45%
    02:00 +19°C° 0 mm 1 mps 570 mmHg 47%
    03:00 +18°C° 0 mm 1 mps 570 mmHg 47%
    04:00 +18°C° 0 mm 1 mps 570 mmHg 48%
    05:00 +18°C° 0 mm 1 mps 570 mmHg 49%
    06:00 +20°C° 0 mm 1 mps 571 mmHg 44%
    07:00 +21°C° 0 mm 1 mps 572 mmHg 39%
    08:00 +23°C° 0 mm 1 mps 573 mmHg 34%
    09:00 +25°C° 0 mm 1 mps 574 mmHg 31%
    10:00 +27°C° 0 mm 1 mps 574 mmHg 28%
    11:00 +29°C° 0 mm 1 mps 575 mmHg 24%
    12:00 +29°C° 0 mm 2 mps 574 mmHg 24%
    13:00 +29°C° 0 mm 2 mps 573 mmHg 24%
    14:00 +28°C° 0 mm 3 mps 572 mmHg 24%
    15:00 +27°C° 0.1 mm 3 mps 572 mmHg 26%
    16:00 +26°C° 0.1 mm 3 mps 572 mmHg 28%
    17:00 +25°C° 0.1 mm 3 mps 571 mmHg 30%
    18:00 +24°C° 0.4 mm 3 mps 571 mmHg 36%
    19:00 +21°C° 0.4 mm 3 mps 571 mmHg 42%
    20:00 +20°C° 0.4 mm 3 mps 571 mmHg 48%
    21:00 +19°C° 0.4 mm 2 mps 571 mmHg 50%
    22:00 +19°C° 0.4 mm 2 mps 571 mmHg 51%
    23:00 +20°C° 0.4 mm 1 mps 571 mmHg 53%

    24 April, Wednesday

    Time Temperature Precipitation Wind Pressure Humidity
    00:00 +19°C° 0 mm 1 mps 570 mmHg 53%
    01:00 +19°C° 0 mm 1 mps 570 mmHg 53%
    02:00 +19°C° 0 mm 1 mps 569 mmHg 52%
    03:00 +18°C° 0 mm 1 mps 570 mmHg 53%
    04:00 +18°C° 0 mm 1 mps 570 mmHg 53%
    05:00 +16°C° 0 mm 1 mps 570 mmHg 53%
    06:00 +19°C° 0 mm 1 mps 571 mmHg 47%
    07:00 +21°C° 0 mm 1 mps 572 mmHg 41%
    08:00 +23°C° 0 mm 1 mps 573 mmHg 34%
    09:00 +25°C° 0 mm 1 mps 573 mmHg 31%
    10:00 +27°C° 0 mm 1 mps 574 mmHg 29%
    11:00 +28°C° 0 mm 1 mps 574 mmHg 26%
    12:00 +28°C° 0 mm 2 mps 573 mmHg 25%
    13:00 +28°C° 0 mm 2 mps 572 mmHg 25%
    14:00 +28°C° 0 mm 2 mps 572 mmHg 24%
    15:00 +28°C° 0 mm 2 mps 571 mmHg 25%
    16:00 +27°C° 0 mm 3 mps 571 mmHg 26%
    17:00 +26°C° 0 mm 3 mps 571 mmHg 26%
    18:00 +25°C° 0.1 mm 2 mps 571 mmHg 28%
    19:00 +23°C° 0.1 mm 2 mps 571 mmHg 29%
    20:00 +22°C° 0.1 mm 1 mps 571 mmHg 30%
    21:00 +21°C° 0 mm 1 mps 571 mmHg 31%
    22:00 +21°C° 0 mm 1 mps 570 mmHg 33%
    23:00 +20°C° 0 mm 1 mps 570 mmHg 34%
    Show more